Blackpool, United Kingdom

10:20 PM BST on July 26, 2017 (GMT +0100)
Blackpool

Weather History for EGNH - December, 2012

Change the Weather History Date:

Monday, December 24, 2012

  Actual Average Record
Temperature  
Mean Temperature 44 °F -  
Max Temperature 45 °F 43 °F 53 °F (1997)
Min Temperature 42 °F 36 °F 19 °F (2010)
Degree Days  
Heating Degree Days 22    
Moisture  
Dew Point 43 °F    
Average Humidity 95    
Maximum Humidity 100    
Minimum Humidity 86    
Precipitation  
Precipitation 0.08 in - - ()
Sea Level Pressure  
Sea Level Pressure 29.38 in    
Wind  
Wind Speed 9 mph ()    
Max Wind Speed 13 mph    
Max Gust Speed -    
Visibility 5.2 miles    
Events Rain    
Averages and records for this station are not official NWS values.
T = Trace of Precipitation, MM = Missing Value Source: Averaged Metar Reports

Daily Weather History Graph

Daily Weather History Graph

Search for Another Location

Airport or City:

Trip Planner

Search our weather history database for the weather conditions in past years. The results will help you decide how hot, cold, wet, or windy it might be!

Date:

Astronomy

Dec. 24, 2012 Rise Set
Actual Time 8:29 AM GMT 3:54 PM GMT
Civil Twilight 7:45 AM GMT 4:38 PM GMT
Nautical Twilight 6:59 AM GMT 5:24 PM GMT
Astronomical Twilight 6:16 AM GMT 6:07 PM GMT
Moon 1:25 PM GMT (12/24) 4:39 AM GMT (12/24)
Length of Visible Light 8h 52m
Length of Day
7h 25m
Waxing Gibbous, 87% of the Moon is Illuminated
Dec 24
Waxing Gibbous
Dec 28
Full
Jan 5
Last Quarter
Jan 11
New
Jan 18
First Quarter

Hourly Weather History & Observations

Time (GMT) Temp. Windchill Dew Point Humidity Pressure Visibility Wind Dir Wind Speed Gust Speed Precip Events Conditions
2:50 AM 44 °F - 41 °F 86%  in - SSW 8.1 mph - -  
5:50 AM 42 °F - 40 °F 88%  in - SSE 10.4 mph - -  
6:20 AM 42.8 °F 36.6 °F 41.0 °F 93% 29.47 in - SE 11.5 mph - N/A   Clear
6:50 AM 42.8 °F 36.6 °F 41.0 °F 93% 29.47 in - SE 11.5 mph - N/A   Clear
7:20 AM 42.8 °F 36.2 °F 41.0 °F 93% 29.44 in 6.2 mi SE 12.7 mph - N/A   Scattered Clouds
7:50 AM 42.8 °F 36.6 °F 41.0 °F 93% 29.44 in 6.2 mi SE 11.5 mph - N/A   Partly Cloudy
8:20 AM 42.8 °F 36.2 °F 41.0 °F 93% 29.44 in 6.2 mi SE 12.7 mph - N/A   Partly Cloudy
8:50 AM 42 °F - 40 °F 92%  in - SE 12.7 mph - -  
8:50 AM 42.8 °F 36.2 °F 42.8 °F 100% 29.44 in 6.2 mi SSE 12.7 mph - N/A   Partly Cloudy
9:20 AM 42.8 °F 36.2 °F 41.0 °F 93% 29.42 in 6.2 mi SSE 12.7 mph - N/A   Partly Cloudy
9:50 AM 42.8 °F 36.6 °F 42.8 °F 100% 29.42 in 6.2 mi SSE 11.5 mph - N/A   Partly Cloudy
10:20 AM 44.6 °F 38.8 °F 42.8 °F 93% 29.39 in 6.2 mi SE 11.5 mph - N/A   Partly Cloudy
10:50 AM 44.6 °F 38.8 °F 42.8 °F 93% 29.39 in 6.2 mi SE 11.5 mph - N/A   Partly Cloudy
11:20 AM 44.6 °F 39.7 °F 44.6 °F 100% 29.36 in 5.6 mi SSE 9.2 mph - N/A   Partly Cloudy
11:50 AM 44 °F - 43 °F 94%  in - SE 6.9 mph - -  
11:50 AM 44.6 °F 40.7 °F 42.8 °F 93% 29.36 in 4.3 mi SSE 6.9 mph - N/A   Scattered Clouds
12:20 PM 44.6 °F 40.7 °F 44.6 °F 100% 29.33 in 4.3 mi SSE 6.9 mph - N/A Rain Light Rain
12:50 PM 44.6 °F 39.7 °F 44.6 °F 100% 29.33 in 4.3 mi SSE 9.2 mph - N/A Rain Light Rain
1:20 PM 46.4 °F 41.9 °F 44.6 °F 93% 29.30 in 4.3 mi SSE 9.2 mph - N/A Rain Light Rain
1:50 PM 44.6 °F 40.2 °F 44.6 °F 100% 29.30 in 4.3 mi South 8.1 mph - N/A Rain Light Rain
2:20 PM 44.6 °F 39.7 °F 44.6 °F 100% 29.30 in 3.7 mi South 9.2 mph - N/A Rain Light Rain
2:50 PM 44 °F - 43 °F 96%  in - SSE 8.1 mph - -  
3:50 PM 44.6 °F 39.7 °F 44.6 °F 100% 29.27 in 3.7 mi SSE 9.2 mph - N/A Rain Light Rain
4:20 PM 44.6 °F 39.2 °F 42.8 °F 93% 29.27 in 3.7 mi SSE 10.4 mph - N/A Rain Light Rain
5:50 PM 44 °F - 43 °F 96%  in - South 11.5 mph - -  
8:50 PM 44 °F - 42 °F 90%  in - South 12.7 mph - -  
11:50 PM 43 °F - 41 °F 91%  in - South 9.2 mph - -